Date String (YYYY-MM-DD hh:mm:ss) UTC,Instrument flags,absolute air pressure of the measurement (hPa),sample flow rate (lpm),inlet stack bypass flow (lpm),air temperature of the measurement (°C),ambient temperature measured by the external sensor (°C),aerosol sample conditioner tube jacket temperature (°C),OPC LED temperature (°C),internal box temperature (°C),relative humidity of the measurement (%),span deviation,mass concentration of particles derived from Lorenz-Mie calculation of OPC scattering (μg/m³),mass concentration of particles derived from Lorenz-Mie calculation of OPC scattering (μg/m³),mass concentration of particles derived from Lorenz-Mie calculation of OPC scattering (μg/m³)
DateTimeUTC,F1_M11,P_M11,Q1_M11,Q2_M11,T1_M11,T2_M11,T3_M11,T4_M11,T5_M11,U1_M11,ZSPAN_M11,X2_M11,X0_M11,X1_M11
2024-05-02 08:00:00,SystemResetWarning,0824.7,4.99,000.00,024.4,023.8,000.0,032.8,026.3,020.1,0000.0,0002.67,0006.26,0001.70
2024-05-02 08:01:00,SystemResetWarning,0824.8,4.99,000.00,024.4,023.8,000.0,032.9,026.3,020.1,0000.0,0002.65,0006.36,0001.68
2024-05-02 08:02:00,SystemResetWarning,0824.8,5.00,000.00,024.4,023.8,000.0,032.9,026.4,020.2,0000.0,0002.59,0006.52,0001.68
2024-05-02 08:03:00,SystemResetWarning,0824.9,5.00,000.00,024.4,023.8,000.0,032.9,026.3,020.2,0000.0,0002.63,0005.48,0001.69
2024-05-02 08:04:00,SystemResetWarning,0824.9,5.01,000.00,024.4,023.8,000.0,032.9,026.3,020.1,0000.0,0002.64,0005.24,0001.67
2024-05-02 08:05:00,SystemResetWarning,0824.9,5.00,000.00,024.5,023.8,000.0,032.9,026.3,020.1,0000.0,0002.66,0005.31,0001.67
2024-05-02 08:06:00,SystemResetWarning,0824.9,4.98,000.00,024.5,023.8,000.0,032.9,026.4,020.2,0000.0,0002.66,0005.37,0001.67
2024-05-02 08:07:00,SystemResetWarning,0824.9,5.01,000.00,024.5,023.9,000.0,032.9,026.3,020.1,0000.0,0002.78,0005.82,0001.68
2024-05-02 08:08:00,SystemResetWarning,0824.9,5.01,000.00,024.5,023.9,000.0,032.9,026.3,020.1,0000.0,0002.89,0006.31,0001.69
2024-05-02 08:09:00,SystemResetWarning,0824.9,4.99,000.00,024.5,023.9,000.0,032.9,026.4,020.1,0000.0,0002.90,0006.48,0001.69
2024-05-02 08:10:00,SystemResetWarning,0824.8,4.99,000.00,024.5,023.9,000.0,032.9,026.4,020.0,0000.0,0002.96,0006.81,0001.71
2024-05-02 08:11:00,SystemResetWarning,0824.8,5.00,000.00,024.5,023.9,000.0,033.0,026.4,020.0,0000.0,0003.01,0007.27,0001.72
2024-05-02 08:12:00,SystemResetWarning,0824.8,5.00,000.00,024.6,023.9,000.0,033.0,026.4,020.0,0000.0,0003.07,0007.57,0001.75
2024-05-02 08:13:00,SystemResetWarning,0824.9,5.00,000.00,024.6,024.0,000.0,033.0,026.4,019.9,0000.0,0003.09,0007.48,0001.76
2024-05-02 08:14:00,SystemResetWarning,0824.9,5.00,000.00,024.6,024.0,000.0,033.0,026.5,019.9,0000.0,0003.09,0007.43,0001.76
2024-05-02 08:15:00,SystemResetWarning,0824.9,5.01,000.00,024.6,024.0,000.0,033.0,026.5,019.7,0000.0,0003.09,0007.46,0001.78
2024-05-02 08:16:00,SystemResetWarning,0824.9,5.00,000.00,024.6,024.0,000.0,033.0,026.5,019.7,0000.0,0003.10,0007.45,0001.79
2024-05-02 08:17:00,SystemResetWarning,0824.9,4.99,000.00,024.6,024.0,000.0,033.0,026.5,019.8,0000.0,0003.12,0007.45,0001.80
2024-05-02 08:18:00,SystemResetWarning,0824.9,4.99,000.00,024.6,024.0,000.0,033.0,026.5,019.7,0000.0,0003.11,0007.50,0001.80
2024-05-02 08:19:00,SystemResetWarning,0824.9,5.01,000.00,024.6,024.0,000.0,033.0,026.5,019.6,0000.0,0003.12,0007.78,0001.80
2024-05-02 08:20:00,SystemResetWarning,0824.9,5.01,000.00,024.6,024.0,000.0,033.1,026.6,019.3,0000.0,0003.14,0009.14,0001.81
2024-05-02 08:21:00,SystemResetWarning,0824.9,4.99,000.00,024.6,024.0,000.0,033.1,026.6,019.3,0000.0,0003.12,0009.30,0001.83
2024-05-02 08:22:00,SystemResetWarning,0824.9,4.99,000.00,024.7,024.0,000.0,033.1,026.6,019.3,0000.0,0003.11,0009.03,0001.83
2024-05-02 08:23:00,SystemResetWarning,0824.9,5.01,000.00,024.7,024.0,000.0,033.1,026.6,019.1,0000.0,0003.12,0008.91,0001.84
2024-05-02 08:24:00,SystemResetWarning,0824.9,5.01,000.00,024.7,024.0,000.0,033.1,026.6,019.0,0000.0,0003.12,0008.89,0001.83
2024-05-02 08:25:00,SystemResetWarning,0824.9,4.99,000.00,024.7,024.0,000.0,033.1,026.6,018.8,0000.0,0003.15,0008.94,0001.85
2024-05-02 08:26:00,SystemResetWarning,0824.9,5.00,000.00,024.7,024.0,000.0,033.1,026.5,018.5,0000.0,0003.18,0009.03,0001.85
2024-05-02 08:27:00,SystemResetWarning,0824.9,5.00,000.00,024.7,024.0,000.0,033.1,026.6,018.5,0000.0,0003.18,0009.05,0001.83
2024-05-02 08:28:00,SystemResetWarning,0824.9,5.01,000.00,024.7,024.0,000.0,033.1,026.6,018.5,0000.0,0003.14,0008.95,0001.82
2024-05-02 08:29:00,SystemResetWarning,0824.9,5.01,000.00,024.7,024.0,000.0,033.2,026.6,018.2,0000.0,0003.17,0009.35,0001.83
2024-05-02 08:30:00,SystemResetWarning,0824.9,5.00,000.00,024.7,024.0,000.0,033.2,026.6,018.1,0000.0,0003.15,0009.33,0001.83
2024-05-02 08:31:00,SystemResetWarning,0824.9,5.00,000.00,024.7,024.0,000.0,033.2,026.6,018.2,0000.0,0003.11,0008.04,0001.82
2024-05-02 08:32:00,SystemResetWarning,0824.9,5.00,000.00,024.7,024.0,000.0,033.2,026.6,018.3,0000.0,0003.08,0007.48,0001.80
2024-05-02 08:33:00,SystemResetWarning,0824.9,5.00,000.00,024.7,024.0,000.0,033.2,026.6,018.1,0000.0,0003.02,0007.37,0001.78
2024-05-02 08:34:00,SystemResetWarning,0824.9,5.00,000.00,024.7,024.0,000.0,033.2,026.6,018.2,0000.0,0002.92,0007.20,0001.77
2024-05-02 08:35:00,SystemResetWarning,0824.9,5.00,000.00,024.7,024.0,000.0,033.2,026.6,018.3,0000.0,0002.95,0007.45,0001.77
2024-05-02 08:36:00,SystemResetWarning,0824.9,4.99,000.00,024.7,024.0,000.0,033.2,026.6,018.2,0000.0,0002.91,0007.83,0001.75
2024-05-02 08:37:00,SystemResetWarning,0824.9,5.00,000.00,024.7,024.0,000.0,033.2,026.6,018.2,0000.0,0002.85,0007.75,0001.73
2024-05-02 08:38:00,SystemResetWarning,0824.9,5.00,000.00,024.7,024.0,000.0,033.2,026.6,018.1,0000.0,0002.88,0007.78,0001.76
2024-05-02 08:39:00,SystemResetWarning,0824.9,5.00,000.00,024.7,024.0,000.0,033.2,026.6,017.8,0000.0,0002.91,0007.83,0001.76
2024-05-02 08:40:00,SystemResetWarning,0824.9,5.01,000.00,024.7,024.0,000.0,033.2,026.6,018.0,0000.0,0002.89,0007.30,0001.76
2024-05-02 08:41:00,SystemResetWarning,0824.9,5.01,000.00,024.7,024.0,000.0,033.2,026.6,018.2,0000.0,0002.90,0006.72,0001.75
2024-05-02 08:42:00,SystemResetWarning,0824.9,4.99,000.00,024.7,024.0,000.0,033.2,026.6,018.2,0000.0,0002.92,0007.25,0001.77
2024-05-02 08:43:00,SystemResetWarning,0824.9,5.00,000.00,024.7,024.0,000.0,033.2,026.6,018.1,0000.0,0002.94,0007.89,0001.78
2024-05-02 08:44:00,SystemResetWarning,0824.9,5.01,000.00,024.7,024.0,000.0,033.2,026.5,018.1,0000.0,0002.95,0007.95,0001.79
2024-05-02 08:45:00,SystemResetWarning,0824.9,4.99,000.00,024.7,024.0,000.0,033.2,026.5,018.2,0000.0,0002.96,0007.90,0001.78
2024-05-02 08:46:00,SystemResetWarning,0825.0,4.98,000.00,024.7,024.1,000.0,033.2,026.5,018.2,0000.0,0002.96,0007.89,0001.78
2024-05-02 08:47:00,SystemResetWarning,0824.9,5.00,000.00,024.7,024.1,000.0,033.2,026.5,018.1,0000.0,0002.91,0008.40,0001.78
2024-05-02 08:48:00,SystemResetWarning,0825.0,5.02,000.00,024.7,024.1,000.0,033.2,026.5,018.1,0000.0,0002.92,0008.96,0001.78
2024-05-02 08:49:00,SystemResetWarning,0825.0,4.99,000.00,024.7,024.1,000.0,033.2,026.6,018.0,0000.0,0002.89,0009.30,0001.76
2024-05-02 08:50:00,SystemResetWarning,0825.0,4.99,000.00,024.8,024.1,000.0,033.2,026.6,018.0,0000.0,0002.90,0009.31,0001.77
2024-05-02 08:51:00,SystemResetWarning,0825.0,5.00,000.00,024.8,024.1,000.0,033.2,026.6,018.0,0000.0,0002.84,0009.32,0001.77
2024-05-02 08:52:00,SystemResetWarning,0825.1,5.00,000.00,024.8,024.1,000.0,033.2,026.6,018.0,0000.0,0002.85,0009.53,0001.77
2024-05-02 08:53:00,SystemResetWarning,0825.1,5.01,000.00,024.8,024.1,000.0,033.2,026.6,017.9,0000.0,0002.91,0009.93,0001.78
2024-05-02 08:54:00,SystemResetWarning,0825.1,5.00,000.00,024.8,024.1,000.0,033.2,026.6,017.9,0000.0,0002.94,0009.87,0001.77
2024-05-02 08:55:00,SystemResetWarning,0825.1,4.98,000.00,024.8,024.1,000.0,033.2,026.6,017.8,0000.0,0002.96,0009.92,0001.77
2024-05-02 08:56:00,SystemResetWarning,0825.1,5.01,000.00,024.8,024.1,000.0,033.2,026.6,017.8,0000.0,0003.03,0010.65,0001.78
2024-05-02 08:57:00,SystemResetWarning,0825.1,5.02,000.00,024.8,024.2,000.0,033.2,026.6,017.8,0000.0,0003.08,0010.77,0001.79
2024-05-02 08:58:00,SystemResetWarning,0825.1,4.99,000.00,024.8,024.2,000.0,033.2,026.6,017.9,0000.0,0003.12,0010.52,0001.80
2024-05-02 08:59:00,SystemResetWarning,0825.1,4.99,000.00,024.8,024.2,000.0,033.2,026.6,018.0,0000.0,0003.15,0010.36,0001.81
